Location: Sunny Point
(33.0946°N, 85.0574°W)
Time: 08:13:58
(UTC+00:00)

Envisat - Pass Details

Date: 24 May 2024
Orbit: 762 x 764 km, 98.3° (Epoch: 20 June)

Event Time Altitude Azimuth Distance (km) Brightness Sun altitude
Rises 09:17:49 0° 5° (N) 3,230 6.9 -14.6°
Reaches altitude 10° 09:20:10 10° 1° (N) 2,300 6.0 -14.2°
Maximum altitude 09:25:03 51° 286° (WNW) 959 3.3 -13.4°
Enters shadow 09:28:51 16° 216° (SW) 1,884 4.4 -12.8°
